Corinthiakos — A8UL2 — position and weather

sailwx.info

Track history (hours):
 
Tides and Currents Weather Stations Pressure Air Temp Water Temp Dewpoint Dewpoint Depression Visibility Wind Speed Wind Dir Waves Ship Positions

Corinthiakos

Last reported at 2014-Oct-21 14:19 UTC. Time now 2014-Oct-21 15:22 UTC.
Position N 22°08' E 114°20'.

Length 262 m; draft 6 m.

Type: Cargo ship. MMSI: 636014516.

Date/timePositionNaut miles runAvg speedWind from/ knotsBaromVisibWave heightAir tempDewpointWater temp
2014-Oct-21 14:19N 22°08' E 114°20'11 6.1
2014-Oct-21 12:27N 22°10' E 114°08'0 0.0
2014-Oct-21 11:33N 22°10' E 114°08'1 0.4
2014-Oct-21 09:33N 22°10' E 114°07'1211.6
2014-Oct-21 08:32N 22°06' E 113°54'8 8.3
2014-Oct-21 07:33N 22°11' E 113°47'1211.7
2014-Oct-21 06:33N 22°23' E 113°46'1514.5
2014-Oct-21 05:33N 22°37' E 113°42'2 1.5
2014-Oct-21 04:22N 22°38' E 113°41'0 0.0
2014-Oct-21 03:28N 22°38' E 113°41'0 0.0
2014-Oct-21 01:22N 22°38' E 113°41'0 0.0
2014-Oct-21 00:10N 22°38' E 113°41'0 0.0
2014-Oct-20 23:22N 22°38' E 113°41'0 0.0
2014-Oct-20 22:16N 22°38' E 113°41'0 0.0
2014-Oct-20 19:22N 22°38' E 113°41'0 0.0
2014-Oct-20 16:27N 22°38' E 113°41'4 4.7
2014-Oct-20 15:34N 22°35' E 113°43'1414.1
2014-Oct-20 14:33N 22°21' E 113°47'1212.5
2014-Oct-20 13:33N 22°09' E 113°51'10 9.8
2014-Oct-20 12:30N 21°59' E 113°53'9012.4
2014-Oct-20 05:16N 22°13' E 115°29'1416.0
2014-Oct-20 04:22N 22°17' E 115°43'1113.3
2014-Oct-20 03:32N 22°21' E 115°54'  
Track history (hours):
 
Tides and Currents Weather Stations Pressure Air Temp Water Temp Dewpoint Dewpoint Depression Visibility Wind Speed Wind Dir Waves Ship Positions

Corinthiakos

Last reported at 2014-Oct-21 14:19 UTC. Time now 2014-Oct-21 15:22 UTC.
Position N 22°08' E 114°20'.

Length 262 m; draft 6 m.

Type: Cargo ship. MMSI: 636014516.

Date/timePositionNaut miles runAvg speedWind from/ knotsBaromVisibWave heightAir tempDewpointWater temp
2014-Oct-21 14:19N 22°08' E 114°20'11 6.1
2014-Oct-21 12:27N 22°10' E 114°08'0 0.0
2014-Oct-21 11:33N 22°10' E 114°08'1 0.4
2014-Oct-21 09:33N 22°10' E 114°07'1211.6
2014-Oct-21 08:32N 22°06' E 113°54'8 8.3
2014-Oct-21 07:33N 22°11' E 113°47'1211.7
2014-Oct-21 06:33N 22°23' E 113°46'1514.5
2014-Oct-21 05:33N 22°37' E 113°42'2 1.5
2014-Oct-21 04:22N 22°38' E 113°41'0 0.0
2014-Oct-21 03:28N 22°38' E 113°41'0 0.0
2014-Oct-21 01:22N 22°38' E 113°41'0 0.0
2014-Oct-21 00:10N 22°38' E 113°41'0 0.0
2014-Oct-20 23:22N 22°38' E 113°41'0 0.0
2014-Oct-20 22:16N 22°38' E 113°41'0 0.0
2014-Oct-20 19:22N 22°38' E 113°41'0 0.0
2014-Oct-20 16:27N 22°38' E 113°41'4 4.7
2014-Oct-20 15:34N 22°35' E 113°43'1414.1
2014-Oct-20 14:33N 22°21' E 113°47'1212.5
2014-Oct-20 13:33N 22°09' E 113°51'10 9.8
2014-Oct-20 12:30N 21°59' E 113°53'9012.4
2014-Oct-20 05:16N 22°13' E 115°29'1416.0
2014-Oct-20 04:22N 22°17' E 115°43'1113.3
2014-Oct-20 03:32N 22°21' E 115°54'  

Dump ship's entire track history